Location: Ann Arbor
(42.2710°N, 83.7260°W)
Time: 14:50:16
(UTC-05:00)

Amateur Radio Satellites - All Passes

Search period start: 12 December 2017 14:20
Search period end: 13 December 2017 14:20
Location: Ann Arbor, 42.2710°N, 83.7260°W

Satellite Date Start Highest point End Downlink Frequencies (MHz)
Time Altitude Azimuth
VELOX 1 12 Dec 14:20:57 14:24:45 29° 292° (WNW) 14:28:31 145.980
ITAMSAT 1 12 Dec 14:41:06 14:45:43 33° 67° (ENE) 14:50:21 435.822/435.867
YUBILEINY 12 Dec 14:44:43 14:53:34 70° 80° (E) 15:02:18 435.215
AO-7 12 Dec 14:49:23 14:57:38 75° 68° (ENE) 15:05:58 .
M-CUBED/EXP-1 PRIME 12 Dec 14:51:07 14:55:21 79° 72° (ENE) 14:59:54 437.505
50 SAT 12 Dec 15:10:35 15:13:00 20° 291° (WNW) 15:15:25 437.505
UKube-1 12 Dec 15:14:11 15:18:24 54° 288° (WNW) 15:22:34 .
DOVE 4 12 Dec 15:14:28 15:17:12 14° 61° (ENE) 15:19:52 437.250
nSIGHT-1 12 Dec 15:21:12 15:23:25 17° 351° (N) 15:25:37 .
DX 1 12 Dec 15:24:52 15:28:33 27° 293° (WNW) 15:32:12 434.975-435.025
CUBESAT XI-V 12 Dec 15:35:01 15:37:14 13° 89° (E) 15:39:25 437.345
NO-84 12 Dec 15:35:29 15:39:08 37° 228° (SW) 15:42:56 435.350 FM
BEESAT 12 Dec 15:52:17 15:56:57 53° 100° (E) 16:01:36 436.000
MOZHAYETS 4 12 Dec 15:53:37 15:58:16 84° 104° (ESE) 16:02:53
ISS 12 Dec 15:54:10 15:56:21 16° 355° (N) 15:58:32 437.550
ITUPSAT 1 12 Dec 16:18:49 16:23:37 86° 286° (WNW) 16:28:23 437.325
ITAMSAT 1 12 Dec 16:20:30 16:25:08 32° 263° (W) 16:29:47 435.822/435.867
SO-50 12 Dec 16:20:33 16:24:54 55° 119° (ESE) 16:29:18 436.795
RS-15 12 Dec 16:20:46 16:33:08 76° 306° (NW) 16:45:23 29.354- 29.394
M-CUBED/EXP-1 PRIME 12 Dec 16:29:49 16:30:19 10° 268° (W) 16:30:49 437.505
LilacSat-2 12 Dec 16:38:05 16:39:49 13° 64° (ENE) 16:41:34 437.200
YUBILEINY 12 Dec 16:42:45 16:49:30 26° 280° (W) 16:56:14 435.215
AO-7 12 Dec 16:44:45 16:51:07 24° 267° (W) 16:57:33 .
DOVE 4 12 Dec 16:48:53 16:54:11 82° 257° (WSW) 16:59:24 437.250
XW-2D 12 Dec 16:54:47 16:57:26 19° 67° (ENE) 17:00:08 145.860 - 145.880
nSIGHT-1 12 Dec 16:58:11 17:00:31 18° 12° (NNE) 17:02:50 .
KAITUO 1B 12 Dec 17:09:25 17:12:05 19° 67° (ENE) 17:14:47 145.475/437.950
XW-2B 12 Dec 17:09:58 17:13:08 26° 69° (ENE) 17:16:21 145.730 - 145.750
NUDT-PHONESAT 12 Dec 17:10:15 17:12:47 18° 67° (ENE) 17:15:21 437.300
CUBESAT XI-V 12 Dec 17:10:20 17:15:02 66° 286° (WNW) 17:19:41 437.345
STARS 12 Dec 17:17:53 17:18:27 10° 89° (E) 17:19:00 437.465
XW-2F 12 Dec 17:23:55 17:27:22 35° 72° (ENE) 17:30:51 145.980 - 146.000
CUTE-I 12 Dec 17:28:08 17:33:12 44° 69° (ENE) 17:38:17 437.470
ISS 12 Dec 17:31:05 17:33:42 21° 16° (NNE) 17:36:19 437.550
BEESAT 12 Dec 17:31:06 17:34:19 18° 297° (WNW) 17:37:30 436.000
MOZHAYETS 4 12 Dec 17:33:15 17:34:43 11° 300° (WNW) 17:36:11
XW-2C 12 Dec 17:36:34 17:40:16 56° 74° (ENE) 17:44:01 145.795 - 145.815
HO-68 12 Dec 17:58:22 18:05:08 46° 65° (ENE) 18:11:55 435.675
ITUPSAT 1 12 Dec 17:59:37 18:00:39 11° 302° (WNW) 18:01:41 437.325
KKS-1 12 Dec 18:01:01 18:05:28 83° 103° (ESE) 18:09:53 437.445
SO-50 12 Dec 18:02:16 18:05:40 21° 318° (NW) 18:09:08 436.795
PCSat 12 Dec 18:08:14 18:09:35 11° 101° (ESE) 18:10:56 145.827
LilacSat-2 12 Dec 18:09:57 18:13:38 49° 261° (W) 18:17:23 437.200
XW-2D 12 Dec 18:28:00 18:31:23 31° 263° (W) 18:34:48 145.860 - 145.880
SEEDS 12 Dec 18:32:08 18:36:00 36° 71° (ENE) 18:39:54 437.485
nSIGHT-1 12 Dec 18:34:03 18:37:14 57° 31° (NNE) 18:40:24 .
RS-15 12 Dec 18:37:29 18:48:02 31° 334° (NNW) 18:58:24 29.354- 29.394
KAITUO 1B 12 Dec 18:42:33 18:45:51 29° 264° (W) 18:49:12 145.475/437.950
NUDT-PHONESAT 12 Dec 18:43:07 18:46:24 30° 263° (W) 18:49:43 437.300
XW-2B 12 Dec 18:44:20 18:47:16 21° 266° (W) 18:50:15 145.730 - 145.750
CUTE 1.7 + AOD 2 12 Dec 18:49:58 18:54:13 85° 256° (WSW) 18:58:31 437.475
AO-73 12 Dec 18:50:09 18:52:24 15° 64° (ENE) 18:54:41 145.935
STARS 12 Dec 18:50:54 18:55:15 73° 287° (WNW) 18:59:35 437.465
O/OREOS (USA 219) 12 Dec 18:57:30 19:02:00 67° 65° (ENE) 19:06:27 437.305
AAUSAT CUBESAT 2 12 Dec 18:58:33 19:02:12 30° 70° (ENE) 19:05:54 437.432
XW-2F 12 Dec 18:59:17 19:01:36 15° 268° (W) 19:03:55 145.980 - 146.000
ISS 12 Dec 19:07:15 19:10:33 87° 25° (NNE) 19:13:49 437.550
CUTE-I 12 Dec 19:09:04 19:13:24 25° 266° (W) 19:17:46 437.470
CUBEBUG 2 12 Dec 19:13:39 19:17:54 79° 258° (WSW) 19:22:05 437.445
XW-2C 12 Dec 19:14:46 19:14:47 10° 271° (W) 19:14:50 145.795 - 145.815
UWE-3 12 Dec 19:18:20 19:22:27 64° 75° (ENE) 19:26:34 435.000/436.395/437.385
KKS-1 12 Dec 19:40:14 19:41:20 11° 301° (WNW) 19:42:26 437.445
HO-68 12 Dec 19:46:29 19:52:57 36° 263° (W) 19:59:28 435.675
PCSat 12 Dec 19:46:40 19:52:05 84° 118° (ESE) 19:57:32 145.827
ZACube-1 12 Dec 19:48:38 19:52:45 72° 76° (ENE) 19:56:54 437.345
STRAND 1 12 Dec 19:50:41 19:55:41 52° 100° (E) 20:00:38 437.568
XW-2A 12 Dec 19:53:48 19:57:03 49° 261° (W) 20:00:19 145.665 - 145.685
SEEDS 12 Dec 20:08:42 20:11:46 19° 267° (W) 20:14:52 437.485
nSIGHT-1 12 Dec 20:10:58 20:13:09 17° 227° (SW) 20:15:20 .
Oscar 11 12 Dec 20:12:08 20:16:25 77° 76° (ENE) 20:20:45 .
DELFI C3 12 Dec 20:22:53 20:25:44 19° 67° (ENE) 20:28:37 145.870
AO-73 12 Dec 20:24:13 20:28:13 49° 261° (W) 20:32:15 145.935
FO-29 12 Dec 20:28:33 20:35:07 41° 95° (E) 20:40:56 435.910
AAUSAT CUBESAT 2 12 Dec 20:34:21 20:37:39 23° 266° (W) 20:40:59 437.432
O/OREOS (USA 219) 12 Dec 20:39:12 20:40:47 12° 263° (W) 20:42:21 437.305
BEESAT 3 12 Dec 20:42:33 20:46:13 36° 116° (ESE) 20:49:54 437.485
ISS 12 Dec 20:45:32 20:46:33 11° 230° (SW) 20:47:35 437.550
RS-15 12 Dec 20:56:20 21:05:47 25° 9° (N) 21:14:54 29.354- 29.394
UWE-3 12 Dec 20:58:36 20:59:20 10° 271° (W) 21:00:04 435.000/436.395/437.385
Max Valier Satellite 12 Dec 21:00:47 21:04:02 32° 71° (ENE) 21:07:20 145.860
BEESAT 2 12 Dec 21:17:26 21:20:41 24° 113° (ESE) 21:23:57 435.950
STRAND 1 12 Dec 21:30:47 21:34:28 20° 297° (WNW) 21:38:07 437.568
PCSat 12 Dec 21:32:27 21:36:10 18° 318° (NW) 21:39:55 145.827
EO-88 12 Dec 21:33:46 21:37:20 57° 74° (ENE) 21:40:56 145.990 - 145.960
DELFI C3 12 Dec 21:56:36 22:00:14 34° 263° (W) 22:03:54 145.870
ESTCUBE 1 12 Dec 22:00:17 22:02:56 16° 63° (ENE) 22:05:36 437.505/2401.250
PRISM 12 Dec 22:07:08 22:09:00 13° 91° (E) 22:10:53 437.425
LO-87 12 Dec 22:12:30 22:15:08 20° 68° (ENE) 22:17:46 145.935 - 145.965
FO-29 12 Dec 22:13:40 22:20:03 37° 296° (WNW) 22:25:46 435.910
TIGRISAT 12 Dec 22:18:28 22:22:45 59° 101° (E) 22:27:06 435.000
BEESAT 3 12 Dec 22:20:36 22:23:50 23° 314° (NW) 22:27:06 437.485
UNISAT 6 12 Dec 22:21:07 22:25:26 70° 102° (ESE) 22:29:50 437.425
Max Valier Satellite 12 Dec 22:35:37 22:37:57 16° 267° (W) 22:40:17 145.860
AIST 2D 12 Dec 22:51:42 22:53:34 14° 92° (E) 22:55:25 435.315
BEESAT 2 12 Dec 22:54:35 22:58:15 33° 311° (NW) 23:01:57 435.950
SPROUT 12 Dec 23:04:41 23:07:23 17° 64° (ENE) 23:10:03 437.525
RS-15 12 Dec 23:10:44 23:22:13 49° 42° (NE) 23:33:03 29.354- 29.394
SO-50 12 Dec 23:12:31 23:14:08 12° 33° (NNE) 23:15:47 436.795
AO-85 12 Dec 23:13:55 23:17:49 77° 304° (NW) 23:21:57 145.980
EO-79 12 Dec 23:27:24 23:29:13 12° 90° (E) 23:31:03 145.935-145.965
ESTCUBE 1 12 Dec 23:34:49 23:39:14 57° 259° (W) 23:43:44 437.505/2401.250
PRISM 12 Dec 23:40:35 23:44:35 52° 287° (WNW) 23:48:33 437.425
VELOX 1 12 Dec 23:42:10 23:45:52 26° 67° (ENE) 23:49:36 145.980
LO-87 12 Dec 23:45:27 23:48:24 24° 264° (W) 23:51:20 145.935 - 145.965
POLYITAN 1 12 Dec 23:48:34 23:51:51 22° 94° (E) 23:55:08 437.675
TIGRISAT 12 Dec 23:56:46 23:58:58 14° 297° (WNW) 00:01:11 435.000
UNISAT 6 12 Dec 23:59:57 00:01:36 12° 298° (WNW) 00:03:15 437.425
QB50P2 13 Dec 00:13:29 00:17:34 46° 99° (E) 00:21:38 145.880/145.840
FALCONSAT 3 13 Dec 00:17:40 00:20:32 22° 167° (SSE) 00:23:25 435.103
DUCHIFAT 1 13 Dec 00:22:12 00:26:08 39° 98° (E) 00:30:03 145.980
AIST 2D 13 Dec 00:23:35 00:26:51 35° 288° (WNW) 00:30:07 435.315
UKube-1 13 Dec 00:35:08 00:37:19 14° 62° (ENE) 00:39:28 .
SPROUT 13 Dec 00:38:48 00:42:53 46° 261° (W) 00:46:59 437.525
DX 1 13 Dec 00:44:35 00:48:16 27° 67° (ENE) 00:51:57 434.975-435.025
NANOSAT C BR1 13 Dec 00:47:13 00:51:26 88° 105° (ESE) 00:55:38 145.865
SO-50 13 Dec 00:50:58 00:55:34 58° 53° (NE) 01:00:14 436.795
AO-85 13 Dec 00:57:33 00:59:01 12° 326° (NW) 01:00:30 145.980
EO-79 13 Dec 01:01:12 01:05:19 56° 287° (WNW) 01:09:26 145.935-145.965
AO-91 13 Dec 01:11:11 01:12:32 12° 91° (E) 01:13:52 145.960
BUGSAT 1 13 Dec 01:11:14 01:14:50 31° 97° (E) 01:18:27 437.445
VELOX 1 13 Dec 01:18:17 01:22:13 30° 264° (W) 01:26:08 145.980
RS-15 13 Dec 01:23:38 01:34:58 58° 247° (WSW) 01:45:44 29.354- 29.394
POLYITAN 1 13 Dec 01:23:54 01:27:40 32° 290° (WNW) 01:31:26 437.675
50 SAT 13 Dec 01:35:57 01:39:07 72° 256° (WSW) 01:42:18 437.505
Oscar 19 13 Dec 01:45:06 01:50:02 42° 99° (E) 01:54:57 437.125/150
QB50P2 13 Dec 01:50:19 01:52:59 16° 296° (WNW) 01:55:37 145.880/145.840
ITUPSAT 1 13 Dec 01:50:49 01:53:20 14° 61° (ENE) 01:55:51 437.325
YUBILEINY 13 Dec 01:54:39 01:59:09 15° 74° (ENE) 02:03:39 435.215
FALCONSAT 3 13 Dec 01:55:56 01:59:07 28° 182° (S) 02:02:17 435.103
DUCHIFAT 1 13 Dec 01:58:35 02:01:30 19° 294° (WNW) 02:04:26 145.980
UKube-1 13 Dec 02:08:32 02:12:48 61° 259° (W) 02:17:06 .
Gurwin Techsat 1B 13 Dec 02:10:31 02:15:44 53° 100° (E) 02:20:54 435.225
DX 1 13 Dec 02:20:33 02:24:21 29° 263° (W) 02:28:10 434.975-435.025
SO-50 13 Dec 02:32:31 02:35:36 18° 250° (WSW) 02:38:42 436.795
CUBESAT XI-V 13 Dec 02:38:55 02:41:29 15° 62° (ENE) 02:44:03 437.345
AO-91 13 Dec 02:46:02 02:49:17 35° 289° (WNW) 02:52:23 145.960
BUGSAT 1 13 Dec 02:46:56 02:50:00 21° 293° (WNW) 02:53:04 437.445
AO-7 13 Dec 02:51:31 02:57:47 23° 92° (E) 03:04:00 .
PCSat 13 Dec 02:52:03 02:55:07 15° 38° (NE) 02:58:09 145.827
MOZHAYETS 4 13 Dec 02:55:37 03:00:09 84° 77° (ENE) 03:04:45
BEESAT 13 Dec 02:58:53 03:03:34 65° 73° (ENE) 03:08:18 436.000
Oscar 19 13 Dec 03:24:54 03:29:07 25° 295° (WNW) 03:33:19 437.125/150
ITUPSAT 1 13 Dec 03:25:50 03:30:34 70° 258° (WSW) 03:35:20 437.325
FALCONSAT 3 13 Dec 03:35:08 03:37:38 17° 198° (SSW) 03:40:08 435.103
RS-15 13 Dec 03:43:46 03:44:25 10° 269° (W) 03:45:05 29.354- 29.394
YUBILEINY 13 Dec 03:45:36 03:54:23 79° 94° (E) 04:03:15 435.215
Gurwin Techsat 1B 13 Dec 03:51:20 03:55:16 22° 298° (WNW) 03:59:13 435.225
M-CUBED/EXP-1 PRIME 13 Dec 04:03:11 04:07:39 54° 105° (ESE) 04:11:52 437.505
CUBESAT XI-V 13 Dec 04:13:40 04:18:17 64° 259° (W) 04:22:57 437.345
STARS 13 Dec 04:14:44 04:16:08 11° 60° (ENE) 04:17:33 437.465
ITAMSAT 1 13 Dec 04:31:57 04:37:10 85° 104° (ESE) 04:42:20 435.822/435.867
PCSat 13 Dec 04:34:01 04:39:28 74° 59° (ENE) 04:44:52 145.827
BEESAT 13 Dec 04:39:28 04:41:47 13° 270° (W) 04:44:06 436.000
AO-7 13 Dec 04:42:56 04:51:20 79° 291° (WNW) 04:59:41 .
DOVE 4 13 Dec 04:48:23 04:52:05 24° 93° (E) 04:55:37 437.250
BEESAT 3 13 Dec 04:58:32 05:01:56 27° 47° (NE) 05:05:16 437.485
KKS-1 13 Dec 04:59:04 05:03:32 81° 75° (ENE) 05:08:01 437.445
STRAND 1 13 Dec 05:32:28 05:33:42 11° 57° (ENE) 05:34:57 437.568
BEESAT 2 13 Dec 05:34:04 05:37:07 20° 44° (NE) 05:40:08 435.950
M-CUBED/EXP-1 PRIME 13 Dec 05:38:29 05:41:33 18° 302° (WNW) 05:44:30 437.505
LilacSat-2 13 Dec 05:43:18 05:45:49 16° 92° (E) 05:48:20 437.200
YUBILEINY 13 Dec 05:45:27 05:52:12 24° 296° (WNW) 05:59:00 435.215
CUTE-I 13 Dec 05:45:44 05:49:00 16° 91° (E) 05:52:15 437.470
STARS 13 Dec 05:47:27 05:51:50 78° 256° (WSW) 05:56:15 437.465
XW-2D 13 Dec 05:59:40 06:02:51 24° 95° (E) 06:06:00 145.860 - 145.880
AO-85 13 Dec 06:04:14 06:07:25 18° 41° (NE) 06:10:45 145.980
NUDT-PHONESAT 13 Dec 06:12:25 06:15:23 22° 94° (E) 06:18:20 437.300
KAITUO 1B 13 Dec 06:12:46 06:15:52 23° 95° (E) 06:18:56 145.475/437.950
ITAMSAT 1 13 Dec 06:13:26 06:15:53 14° 302° (WNW) 06:18:20 435.822/435.867
XW-2B 13 Dec 06:15:11 06:18:45 35° 97° (E) 06:22:17 145.730 - 145.750
PCSat 13 Dec 06:19:06 06:22:11 15° 256° (WSW) 06:25:16 145.827
DOVE 4 13 Dec 06:25:47 06:29:48 31° 292° (WNW) 06:33:37 437.250
XW-2F 13 Dec 06:28:47 06:32:31 48° 99° (E) 06:36:14 145.980 - 146.000
CUTE 1.7 + AOD 2 13 Dec 06:35:19 06:38:02 16° 91° (E) 06:40:42 437.475
BEESAT 3 13 Dec 06:36:01 06:39:25 29° 245° (WSW) 06:42:46 437.485
AO-7 13 Dec 06:37:19 06:42:49 20° 311° (NW) 06:48:21 .
FO-29 13 Dec 06:40:29 06:46:27 25° 58° (ENE) 06:52:27 435.910
XW-2C 13 Dec 06:42:15 06:46:06 80° 100° (E) 06:49:57 145.795 - 145.815
NO-84 13 Dec 06:51:24 06:53:35 19° 127° (SE) 06:55:53 435.350 FM
CUBEBUG 2 13 Dec 07:04:08 07:07:16 20° 94° (E) 07:10:27 437.445
STRAND 1 13 Dec 07:06:54 07:12:01 79° 74° (ENE) 07:17:09 437.568
UWE-3 13 Dec 07:08:41 07:10:32 12° 90° (E) 07:12:23 435.000/436.395/437.385
BEESAT 2 13 Dec 07:11:12 07:15:03 45° 242° (WSW) 07:18:49 435.950
HO-68 13 Dec 07:12:40 07:19:30 45° 99° (E) 07:26:16 435.675
LilacSat-2 13 Dec 07:16:38 07:20:13 36° 288° (WNW) 07:23:46 437.200
CUTE-I 13 Dec 07:24:13 07:29:30 65° 287° (WNW) 07:34:45 437.470
XW-2D 13 Dec 07:33:47 07:36:55 24° 291° (WNW) 07:40:03 145.860 - 145.880
ZACube-1 13 Dec 07:37:25 07:39:40 14° 91° (E) 07:41:55 437.345
AO-85 13 Dec 07:43:33 07:48:22 83° 238° (WSW) 07:53:30 145.980
NUDT-PHONESAT 13 Dec 07:46:03 07:49:09 25° 291° (WNW) 07:52:17 437.300
KAITUO 1B 13 Dec 07:46:39 07:49:45 24° 291° (WNW) 07:52:50 145.475/437.950
XW-2B 13 Dec 07:50:04 07:52:38 17° 294° (WNW) 07:55:13 145.730 - 145.750
SEEDS 13 Dec 07:50:18 07:54:32 66° 101° (E) 07:58:44 437.485
Oscar 11 13 Dec 08:00:14 08:02:30 14° 90° (E) 08:04:45 .
XW-2F 13 Dec 08:04:22 08:06:11 13° 296° (WNW) 08:08:00 145.980 - 146.000
CUTE 1.7 + AOD 2 13 Dec 08:09:58 08:14:04 45° 288° (WNW) 08:18:09 437.475
AO-73 13 Dec 08:11:14 08:15:00 28° 96° (E) 08:18:48 145.935
AAUSAT CUBESAT 2 13 Dec 08:14:37 08:18:43 52° 100° (E) 08:22:45 437.432
FO-29 13 Dec 08:22:55 08:30:37 80° 257° (WSW) 08:38:32 435.910
NO-84 13 Dec 08:27:37 08:30:33 39° 326° (NNW) 08:33:43 435.350 FM
CUBEBUG 2 13 Dec 08:40:06 08:43:58 36° 289° (WNW) 08:47:56 437.445
UWE-3 13 Dec 08:43:05 08:47:18 59° 286° (WNW) 08:51:38 435.000/436.395/437.385
XW-2A 13 Dec 08:46:58 08:50:19 52° 286° (WNW) 08:53:39 145.665 - 145.685
STRAND 1 13 Dec 08:49:42 08:51:46 12° 271° (W) 08:53:50 437.568
PRISM 13 Dec 08:57:45 08:58:58 11° 61° (ENE) 09:00:12 437.425
HO-68 13 Dec 09:00:38 09:07:04 37° 297° (WNW) 09:13:27 435.675
O/OREOS (USA 219) 13 Dec 09:09:56 09:14:30 72° 111° (ESE) 09:19:05 437.305
ZACube-1 13 Dec 09:11:59 09:16:13 55° 286° (WNW) 09:20:33 437.345
TIGRISAT 13 Dec 09:17:28 09:21:39 53° 73° (ENE) 09:25:48 435.000
UNISAT 6 13 Dec 09:20:11 09:24:27 63° 74° (ENE) 09:28:41 437.425
AO-85 13 Dec 09:27:07 09:28:09 11° 253° (WSW) 09:29:12 145.980
SEEDS 13 Dec 09:27:56 09:29:38 12° 298° (WNW) 09:31:20 437.485
DELFI C3 13 Dec 09:32:39 09:36:01 26° 95° (E) 09:39:21 145.870
Oscar 11 13 Dec 09:34:42 09:38:57 54° 287° (WNW) 09:43:12 .
AO-73 13 Dec 09:47:29 09:51:08 27° 291° (WNW) 09:54:51 145.935
AAUSAT CUBESAT 2 13 Dec 09:51:26 09:53:42 14° 296° (WNW) 09:55:58 437.432
Max Valier Satellite 13 Dec 10:03:08 10:06:41 40° 98° (E) 10:10:13 145.860
NO-84 13 Dec 10:07:04 10:08:38 13° 348° (NNW) 10:10:15 435.350 FM
FO-29 13 Dec 10:12:21 10:16:41 16° 275° (W) 10:21:07 435.910
EO-79 13 Dec 10:21:23 10:22:30 11° 61° (ENE) 10:23:36 145.935-145.965
PRISM 13 Dec 10:29:30 10:33:39 72° 259° (WSW) 10:37:49 437.425
EO-88 13 Dec 10:34:56 10:38:37 71° 101° (ESE) 10:42:16 145.990 - 145.960
POLYITAN 1 13 Dec 10:41:57 10:44:49 18° 65° (ENE) 10:47:41 437.675
O/OREOS (USA 219) 13 Dec 10:51:58 10:54:27 14° 309° (NW) 10:56:56 437.305
TIGRISAT 13 Dec 10:56:32 10:58:39 13° 269° (W) 11:00:46 435.000
AIST 2D 13 Dec 10:57:20 11:00:48 80° 79° (E) 11:04:21 435.315
UNISAT 6 13 Dec 11:00:12 11:01:34 11° 270° (W) 11:02:55 437.425
QB50P2 13 Dec 11:06:20 11:10:11 36° 71° (ENE) 11:14:03 145.880/145.840
DELFI C3 13 Dec 11:07:28 11:10:38 23° 292° (WNW) 11:13:46 145.870
LO-87 13 Dec 11:11:12 11:14:00 22° 95° (E) 11:16:48 145.935 - 145.965
nSIGHT-1 13 Dec 11:13:29 11:14:33 11° 130° (SE) 11:15:37 .
DUCHIFAT 1 13 Dec 11:14:19 11:17:57 30° 70° (ENE) 11:21:37 145.980
ESTCUBE 1 13 Dec 11:26:52 11:30:48 28° 96° (E) 11:34:42 437.505/2401.250
Max Valier Satellite 13 Dec 11:38:05 11:40:08 14° 294° (WNW) 11:42:11 145.860
NANOSAT C BR1 13 Dec 11:39:14 11:43:23 67° 74° (ENE) 11:47:32 145.865
NO-84 13 Dec 11:45:47 11:47:12 12° 10° (N) 11:48:40 435.350 FM
ISS 13 Dec 11:48:08 11:50:34 19° 134° (SE) 11:53:01 437.550
EO-79 13 Dec 11:53:28 11:57:38 73° 257° (WSW) 12:01:51 145.935-145.965
Gurwin Techsat 1B 13 Dec 11:55:56 11:58:14 13° 57° (ENE) 12:00:31 435.225
BUGSAT 1 13 Dec 12:01:31 12:04:46 24° 68° (ENE) 12:08:00 437.445
AO-91 13 Dec 12:07:24 12:10:39 18° 66° (ENE) 12:13:43 145.960
POLYITAN 1 13 Dec 12:16:21 12:20:17 40° 262° (W) 12:24:15 437.675
SPROUT 13 Dec 12:23:50 12:27:26 26° 95° (E) 12:31:01 437.525
QB50P2 13 Dec 12:43:03 12:46:04 19° 267° (W) 12:49:06 145.880/145.840
LO-87 13 Dec 12:44:31 12:47:19 22° 291° (WNW) 12:50:06 145.935 - 145.965
nSIGHT-1 13 Dec 12:47:05 12:50:18 84° 327° (NNW) 12:53:32 .
DUCHIFAT 1 13 Dec 12:50:19 12:53:37 22° 265° (W) 12:56:55 145.980
Oscar 19 13 Dec 13:02:18 13:07:23 65° 73° (ENE) 13:12:29 437.125/150
ESTCUBE 1 13 Dec 13:03:37 13:07:32 29° 292° (WNW) 13:11:25 437.505/2401.250
VELOX 1 13 Dec 13:06:58 13:11:13 46° 99° (E) 13:15:27 145.980
NANOSAT C BR1 13 Dec 13:19:04 13:19:30 10° 271° (W) 13:19:58 145.865
NO-84 13 Dec 13:22:09 13:25:26 28° 29° (NNE) 13:28:55 435.350 FM
ISS 13 Dec 13:23:35 13:26:48 53° 330° (NNW) 13:30:03 437.550
Gurwin Techsat 1B 13 Dec 13:32:02 13:37:21 88° 77° (ENE) 13:42:43 435.225
BUGSAT 1 13 Dec 13:36:31 13:40:00 27° 264° (W) 13:43:28 437.445
RS-15 13 Dec 13:37:06 13:46:08 25° 100° (E) 13:55:06 29.354- 29.394
AO-91 13 Dec 13:41:54 13:46:47 53° 260° (W) 13:51:15 145.960
AO-7 13 Dec 13:50:57 13:58:13 36° 58° (ENE) 14:05:32 .
YUBILEINY 13 Dec 13:55:28 14:03:41 40° 72° (ENE) 14:11:46 435.215
UKube-1 13 Dec 13:55:32 13:58:44 20° 94° (E) 14:01:55 .
SPROUT 13 Dec 13:59:41 14:03:15 27° 292° (WNW) 14:06:48 437.525
DX 1 13 Dec 14:07:24 14:11:35 44° 100° (E) 14:15:42 434.975-435.025
ITAMSAT 1 13 Dec 14:13:03 14:16:39 19° 61° (ENE) 14:20:14 435.822/435.867
